Weather in Polevodstvo

Russia / Sverdlovsk Oblast     56°42′28″N   60°33′13″E
temp.,
°C
wind,
m/s
gust,
m/s
humid.,
%
clouds,
%
prec.,
mm/h
press.,
hPa
HPBL,
m
26 july, mon
mon2623:00+10nw396214 0.0 1018192
02:00+8w227340 0.0 101920
05:00+11w2760100 0.0 1019220
08:00+13wnw385376 0.0 1019518
11:00+16wnw473898 0.0 10192235
14:00+16wnw4744100 0.0 10181833
17:00+18wnw5738100 0.0 10172469
20:00+15w385597 0.0 1017554
27 july, tue
tue2723:00+12wsw387479 0.0 1017230
02:00+10wsw31180100 0.0 1016271
05:00+10wsw412757 0.0 1015321
08:00+14wsw4116580 0.0 1013477
11:00+12w51186100 0.3 1012819
14:00+18wnw585853 0.1 10111462
17:00+19nw585498 0.4 10101718
20:00+15nw387483 0.2 1010515
28 july, wed
wed2823:00+11wnw248425 0.3 101195
02:00+8wnw26915 0.0 1012130
05:00+6w27955 0.0 1012129
08:00+11wnw4106760 0.1 1011641
11:00+16wnw6114295 0.1 10092305
14:00+14w596072 0.4 10101512
17:00+14nw5105576 0.6 10111749
20:00+12nw48545 0.0 10121125
29 july, thu
thu2923:00+7wsw227344 0.0 101319
02:00+7wsw267891 0.0 1012130
05:00+8wsw2571100 0.0 1011128
08:00+9sw2894100 1.4 1010238
11:00+17w496057 1.7 10081017
14:00+15wnw277154 0.1 1008271
17:00+16wsw397324 0.4 1008362
20:00+16w71380100 1.4 1007747
30 july, fri
fri3023:00+12wsw3119683 2.5 1007218
02:00+14wsw412947 0.2 1006316
05:00+13wsw4119823 0.5 1006336
08:00+15w4993100 0.0 1007475
11:00+18w3575100 0.0 1007662
14:00+22w2360100 0.5 10051369
17:00+19sw3586100 1.7 1005372
20:00+17ssw249484 1.5 1004103